304P/Ory (2002)

Japanese version
Home page
Updated on September 28, 2014

---------------------------------------------------------------------

* Profile

* Orbital Elements

Epoch 2002 July 25.0 TT = JDT 2452480.5
T 2002 July 17.97795 TT                                 MPC
q   1.4659564            (2000.0)            P               Q
n   0.16391703     Peri.  312.76724     +0.90248267     -0.42901885
a   3.3066381      Node    72.67120     +0.40597774     +0.81753995
e   0.5566626      Incl.    2.30014     +0.14389966     +0.38415004
P   6.01
From 1025 observations 2002 Oct. 4-2014 July 2, mean residual 0".5.
     Nongravitational parameters A1 = -0.06, A2 = +0.0282.

* Magnitudes Graph

        m1 = 12.5 + 5 log d + 30.0 log r(t - 25)

---------------------------------------------------------------------

The orbital elements are published on M.P.E.C. 2014-N57.
The magnitudes graphs are made with Comet for Windows.

---------------------------------------------------------------------

Copyright(C) Seiichi Yoshida (comet@aerith.net). All rights reserved.